Content
SEND FEEDBACK

Daily
Averages
Monthly
Summary
United States of America

LAKE PLACID, NEW YORK


Home > North America > United States > New York
Elevation: 1984 feet     Latitude: 44 15N     Longitude: 073 59W

WEATHER
 
SELECT A DAY
Number of Records: 231,470;   Date Range: 1/1/95 - 12/18/14
 
SHARE

PRINT THIS DATA

[ ← Previous Day ]
WEATHER ALMANAC - MARCH 23, 2013
[ Next Day → ]
[ °C ]   °F
Weather ElementAverageHighLow
Temperature24.8 °F30 °F (1:51 pm)21.2 °F (1:13 am)
Dewpoint19.1 °F21.2 °F (2:59 am)14 °F (1:51 pm)
Humidity79.7 %93 % (1:13 am)51 % (1:51 pm)
Barometer29.72 in29.85 in (8:51 pm)29.64 in (3:39 am)
Wind Speed7.1 mph10.4 mph (5:51 am)
Wind Gust24.2 mph (6:51 pm)
Weather ElementAverage
Visibility5.9 mi
Wind DirectionSSE (172.2 °)

Weather ElementTotal
Precipitation0.02 in
Heating Degree Days39.4 (Base 65)
Averaged from 37 records on March 23, 2013
WEATHER CONDITIONS BREAKOUT
WIND DIRECTION BREAKOUT
WEATHER BY HOUR - MARCH 23, 2013
[ °C ]   °F
Local TimeTemperatureDewpointHumidityBarometerVisibilityWind DirectionWind SpeedGust SpeedPrecipitationEventsConditions
12:51 AM21.9 °F19.9 °F92 %29.74 in10.0 miWSW (250°)3.5 mphOvercast
1:13 AM21.2 °F19.4 °F93 %29.67 in10.0 miWSW (250°)5.8 mphOvercast
1:51 AM23.0 °F19.9 °F88 %29.73 in2.5 miWSW (240°)5.8 mph0.00 inSnowLight Snow
2:12 AM23.0 °F19.4 °F86 %29.66 in1.8 miWSW (250°)5.8 mph0.00 inSnowLight Snow
2:24 AM23.0 °F19.4 °F86 %29.65 in2.0 miVariable3.5 mph0.00 inSnowLight Snow
2:51 AM24.1 °F21.0 °F88 %29.72 in2.5 miVariable3.5 mph0.00 inSnowLight Snow
2:59 AM24.8 °F21.2 °F86 %29.65 in1.5 miVariable6.9 mph0.00 inSnowLight Snow
3:18 AM24.8 °F19.4 °F80 %29.65 in2.0 miVariable4.6 mph0.00 inSnowLight Snow
3:22 AM24.8 °F21.2 °F86 %29.65 in1.8 miVariable5.8 mph0.00 inSnowLight Snow
3:39 AM23.0 °F21.2 °F93 %29.64 in1.0 miVariable6.9 mph0.01 inSnowLight Snow
3:51 AM23.0 °F21.0 °F92 %29.71 in1.2 miVariable4.6 mph0.01 inSnowLight Snow
4:08 AM23.0 °F19.4 °F86 %29.64 in3.0 miWNW (290°)8.1 mph0.00 inSnowLight Snow
4:21 AM23.0 °F19.4 °F86 %29.64 in2.0 miVariable5.8 mph0.00 inSnowLight Snow
4:51 AM23.0 °F19.9 °F88 %29.71 in2.5 miWest (280°)8.1 mph0.00 inSnowLight Snow
4:58 AM23.0 °F19.4 °F86 %29.64 in4.0 miWest (280°)5.8 mph0.00 inSnowLight Snow
5:51 AM23.0 °F19.0 °F85 %29.72 in10.0 miWNW (290°)10.4 mph0.00 inOvercast
6:19 AM23.0 °F19.4 °F86 %29.66 in10.0 miVariable5.8 mphOvercast
6:51 AM21.9 °F19.0 °F89 %29.74 in10.0 miVariable5.8 mphOvercast
7:51 AM23.0 °F19.0 °F85 %29.74 in7.0 miVariable6.9 mph0.00 inSnowLight Snow
8:14 AM21.2 °F19.4 °F93 %29.67 in2.5 miWest (260°)8.1 mph20.7 mph0.00 inSnowLight Snow
8:24 AM23.0 °F19.4 °F86 %29.67 in5.0 miWest (260°)5.8 mph21.9 mph0.00 inSnowLight Snow
8:51 AM23.0 °F19.0 °F85 %29.75 in5.0 miWest (270°)8.1 mph16.1 mph0.00 inSnowLight Snow
9:37 AM23.0 °F17.6 °F80 %29.68 in10.0 miWest (280°)10.4 mph19.6 mph0.00 inOvercast
9:51 AM23.0 °F19.0 °F85 %29.75 in10.0 miWest (280°)9.2 mph0.00 inOvercast
11:51 AM27.0 °F17.1 °F66 %29.74 in10.0 miWNW (290°)8.1 mph17.3 mphOvercast
12:17 PM28.4 °F15.8 °F59 %29.67 in10.0 miWNW (290°)10.4 mph18.4 mphOvercast
12:51 PM28.9 °F17.1 °F61 %29.73 in10.0 miVariable5.8 mphOvercast
1:51 PM30.0 °F14.0 °F51 %29.73 in10.0 miWNW (290°)8.1 mph23.0 mphOvercast
4:51 PM30.0 °F17.1 °F59 %29.77 in10.0 miWest (270°)10.4 mph23.0 mph0.00 inOvercast
5:51 PM30.0 °F16.0 °F56 %29.79 in9.0 miWNW (290°)10.4 mph23.0 mph0.00 inOvercast
6:51 PM28.9 °F16.0 °F58 %29.81 in10.0 miWNW (290°)10.4 mph24.2 mphOvercast
7:51 PM28.0 °F18.0 °F66 %29.83 in7.0 miWNW (290°)9.2 mph19.6 mph0.00 inSnowLight Snow
8:51 PM28.0 °F19.0 °F69 %29.85 in6.0 miWNW (300°)8.1 mph0.00 inSnowLight Snow
9:51 PM27.0 °F21.0 °F78 %29.85 in3.0 miWNW (290°)8.1 mph0.00 inSnowLight Snow
10:41 PM26.6 °F21.2 °F80 %29.78 in2.5 miWNW (290°)6.9 mph0.00 inSnowLight Snow
10:51 PM26.1 °F21.0 °F81 %29.84 in4.0 miVariable4.6 mph0.00 inSnowLight Snow
11:51 PM27.0 °F19.9 °F75 %29.83 in10.0 miVariable6.9 mph0.00 inOvercast
Hourly data recorded from KSLK, located miles away from Lake Placid, New York







STORIES FROM OUR PARTNERS